This demonstration page uses our WeatherBlox Daily Observations layout. Learn more.

39.51506, -84.39828

Hourly Observations for November 22, 2019

Temp ( °F °C ) Dew Point ( °F °C ) Humidity (%) Winds ( mph kmh ) Pressure ( in mb ) Visibility ( mi km ) Precip ( " mm )
12:15 am 00:15 Cloudy 53 11.4 50 10 91 91 SSW 9 15 29.95 1014 10 16.0934 0 0
12:35 am 00:35 Cloudy 53 11.4 50 10 91 91 SSW 12 19 29.94 1014 10 16.0934 0 0
12:55 am 00:55 Cloudy 53 11.4 50 10.1 92 92 SW 10 17 29.95 1014 10 16.0934 0 0
1:15 am 01:15 Cloudy with Light Rain 52 11.1 51 10.4 96 96 SW 12 19 29.95 1014 2 3.21868 0 0
1:35 am 01:35 Cloudy with Light Drizzle 52 11 51 10.5 97 97 SW 8 13 29.95 1014 5 8.0467 0 0
1:55 am 01:55 Cloudy 49 9.7 47 8.3 91 91 WNW 14 22 29.97 1015 10 16.0934 0 0
2:15 am 02:15 Cloudy 48 9.1 46 7.9 92 92 WNW 10 17 29.97 1015 10 16.0934 0 0
2:35 am 02:35 Cloudy with Light Rain 48 8.9 46 7.6 92 92 WNW 10 17 29.98 1015 7 11.26538 0 0
2:55 am 02:55 Cloudy with Light Rain 47 8.5 45 7.1 91 91 WNW 14 22 29.99 1016 10 16.0934 0 0
3:15 am 03:15 Cloudy with Light Rain 47 8.1 45 7 93 93 WNW 10 17 29.98 1015 10 16.0934 0 0
3:35 am 03:35 Cloudy with Light Rain 46 7.5 43 5.9 90 90 WNW 16 26 30.01 1016 10 16.0934 0 0
3:55 am 03:55 Cloudy 45 7 42 5.5 90 90 WNW 10 17 30.01 1016 10 16.0934 0 0
4:15 am 04:15 Cloudy with Light Rain 44 6.7 41 5.2 90 90 NNW 8 13 30.01 1016 10 16.0934 0 0
4:35 am 04:35 Cloudy with Light Rain 44 6.4 41 4.9 90 90 WNW 7 11 30.01 1016 10 16.0934 0 0
4:55 am 04:55 Cloudy with Light Drizzle 43 6.3 40 4.6 89 89 NW 6 9 30.03 1017 10 16.0934 0 0
5:15 am 05:15 Cloudy with Light Rain 43 6 40 4.7 91 91 WNW 6 9 30.03 1017 4 6.43736 0 0
5:35 am 05:35 Cloudy with Light Rain 43 5.9 41 4.8 93 93 NW 7 11 30.05 1018 7 11.26538 0 0
5:55 am 05:55 Cloudy with Light Drizzle 43 5.9 40 4.7 92 92 NW 5 7 30.05 1018 10 16.0934 0 0
6:15 am 06:15 Cloudy with Light Rain 43 5.9 40 4.6 91 91 NW 5 7 30.05 1018 10 16.0934 0 0
6:35 am 06:35 Cloudy 43 5.9 40 4.6 91 91 NW 6 9 30.07 1018 10 16.0934 0 0
6:55 am 06:55 Cloudy 42 5.6 40 4.2 91 91 NNW 8 13 30.08 1019 10 16.0934 0 0
7:15 am 07:15 Cloudy 42 5.3 39 4 91 91 NNW 7 11 30.08 1019 10 16.0934 0 0
7:35 am 07:35 Cloudy 41 5.1 38 3.6 90 90 NNW 9 15 30.1 1019 10 16.0934 0 0
7:55 am 07:55 Cloudy 41 5 38 3.5 90 90 NNW 5 7 30.11 1020 10 16.0934 0 0
8:15 am 08:15 Cloudy 41 5 38 3.4 90 90 NNW 7 11 30.12 1020 10 16.0934 0 0
8:35 am 08:35 Cloudy 41 4.9 38 3.2 89 89 N 3 6 30.13 1020 10 16.0934 0 0
8:55 am 08:55 Cloudy 41 4.9 37 2.6 85 85 Calm 30.14 1021 10 16.0934 0 0
9:15 am 09:15 Cloudy 41 4.8 36 2 82 82 N 12 19 30.15 1021 10 16.0934 0 0
9:35 am 09:35 Cloudy 40 4.7 34 1.3 79 79 N 9 15 30.16 1021 10 16.0934 0 0
9:55 am 09:55 Cloudy 41 4.8 34 1.3 78 78 N 7 11 30.15 1021 10 16.0934 0 0
10:15 am 10:15 Cloudy 41 4.8 35 1.4 79 79 N 7 11 30.16 1021 10 16.0934 0 0
10:35 am 10:35 Cloudy 40 4.6 34 1.3 79 79 NNW 9 15 30.17 1022 10 16.0934 0 0
10:55 am 10:55 Cloudy 41 5.2 34 1.2 76 76 NNW 12 19 30.16 1021 10 16.0934 0 0
11:15 am 11:15 Cloudy 41 5.1 34 1 75 75 NW 7 11 30.17 1022 10 16.0934 0 0
11:35 am 11:35 Cloudy 42 5.3 34 0.9 74 74 NW 10 17 30.16 1021 10 16.0934 0 0
11:55 am 11:55 Cloudy 42 5.4 33 0.8 73 73 N 13 20 30.16 1021 10 16.0934 0 0
12:15 pm 12:15 Mostly Cloudy 41 5.1 32 0.2 71 71 N 9 15 30.14 1021 10 16.0934 0 0
12:35 pm 12:35 Partly Cloudy 41 5.2 33 0.4 71 71 NNW 6 9 30.14 1021 10 16.0934 0 0
12:55 pm 12:55 Mostly Cloudy 43 5.9 33 0.3 68 68 NNW 10 17 30.14 1021 10 16.0934 0 0
1:15 pm 13:15 Partly Cloudy 43 5.9 32 -0.1 66 66 NNW 8 13 30.14 1021 10 16.0934 0 0
1:35 pm 13:35 Sunny 44 6.4 32 0.2 65 65 N 8 13 30.14 1021 10 16.0934 0 0
1:55 pm 13:55 Sunny 44 6.9 32 -0.1 61 61 N 8 13 30.14 1021 10 16.0934 0 0
2:15 pm 14:15 Sunny 44 6.9 32 -0.1 61 61 NNW 6 9 30.14 1021 10 16.0934 0 0
2:35 pm 14:35 Sunny 44 6.8 31 -0.7 59 59 N 7 11 30.14 1021 10 16.0934 0 0
2:55 pm 14:55 Sunny 44 6.9 30 -0.9 58 58 NNW 9 15 30.14 1021 10 16.0934 0 0
3:15 pm 15:15 Sunny 44 6.5 30 -1.3 58 58 N 8 13 30.14 1021 10 16.0934 0 0
3:35 pm 15:35 Sunny 44 6.7 30 -1 58 58 N 10 17 30.13 1020 10 16.0934 0 0
3:55 pm 15:55 Sunny 43 6.2 31 -0.8 61 61 N 8 13 30.14 1021 10 16.0934 0 0
4:15 pm 16:15 Sunny 43 5.9 30 -1.3 60 60 N 9 15 30.14 1021 10 16.0934 0 0
4:35 pm 16:35 Sunny 43 6 30 -1.2 60 60 N 6 9 30.15 1021 10 16.0934 0 0
4:55 pm 16:55 Sunny 42 5.4 30 -1.1 63 63 NNE 3 6 30.15 1021 10 16.0934 0 0
5:15 pm 17:15 Sunny 41 5 30 -1.3 64 64 Calm 30.16 1021 10 16.0934 0 0
5:35 pm 17:35 Clear 40 4.4 30 -1.2 67 67 Calm 30.16 1021 10 16.0934 0 0
5:55 pm 17:55 Clear 36 2.2 31 -0.5 83 83 Calm 30.17 1022 10 16.0934 0 0
6:15 pm 18:15 Clear 33 0.8 30 -1.2 87 87 Calm 30.17 1022 10 16.0934 0 0
6:35 pm 18:35 Clear with Mist and Fog 32 0 29 -1.7 88 88 Calm 30.18 1022 5 8.0467 0 0
6:55 pm 18:55 Clear 33 0.3 30 -1.3 89 89 N 3 6 30.18 1022 10 16.0934 0 0
7:15 pm 19:15 Clear 34 1.1 29 -1.5 83 83 N 3 6 30.17 1022 10 16.0934 0 0
7:35 pm 19:35 Clear 33 0.7 30 -1.3 87 87 Calm 30.17 1022 10 16.0934 0 0
7:55 pm 19:55 Clear 30 -0.9 28 -2.1 92 92 Calm 30.18 1022 10 16.0934 0 0
8:15 pm 20:15 Clear 30 -1 29 -1.8 94 94 Calm 30.18 1022 10 16.0934 0 0
8:35 pm 20:35 Clear 28 -2.4 26 -3.3 94 94 N 3 6 30.18 1022 10 16.0934 0 0
8:55 pm 20:55 Clear 28 -2 27 -2.7 95 95 Calm 30.18 1022 10 16.0934 0 0
9:15 pm 21:15 Clear 27 -2.8 26 -3.6 94 94 N 5 7 30.17 1022 10 16.0934 0 0
9:35 pm 21:35 Clear 27 -2.6 26 -3.4 94 94 Calm 30.17 1022 10 16.0934 0 0
9:55 pm 21:55 Clear 26 -3.1 25 -3.8 95 95 Calm 30.17 1022 10 16.0934 0 0
10:15 pm 22:15 Clear 28 -2.5 27 -3 96 96 Calm 30.17 1022 10 16.0934 0 0
10:35 pm 22:35 Clear with Mist and Fog 26 -3.1 26 -3.5 97 97 Calm 30.17 1022 5 8.0467 0 0
10:55 pm 22:55 Clear 27 -2.6 26 -3.1 96 96 Calm 30.16 1021 10 16.0934 0 0
11:15 pm 23:15 Clear 28 -2.4 27 -3 96 96 N 3 6 30.16 1021 10 16.0934 0 0
11:35 pm 23:35 Clear 27 -2.6 26 -3.3 95 95 NNE 5 7 30.15 1021 10 16.0934 0 0
11:55 pm 23:55 Clear 28 -2.5 26 -3.1 96 96 N 3 6 30.14 1021 10 16.0934 0 0

Powered by AerisWeather